^^
Your Local Weather - Clay, NY Station Historical Data
 
Daily Summary for February 22, 2018 Units:  Both    English   Metric
« Previous Day
Next Day »
Daily Weekly Monthly Yearly Custom
  Current: High: Low: Average:
Temperature: 34.3 °F /  1.3 °C 34.3 °F /  1.3 °C 33.0 °F /  0.6 °C 33.3 °F /  0.7 °C
Dew Point: 30.5 °F /  -0.8 °C 30.5 °F /  -0.8 °C 28.4 °F /  -2 °C 29.2 °F /  -1.6 °C
Humidity: 86% 87% 82% 85%
Wind Speed: 2.0mph /  3.2km/h 2.0mph /  3.2km/h - 0.2mph /  0.3km/h
Wind Gust: 3.0mph /  4.8km/h 3.0mph /  4.8km/h - -
WindSSE - - West
Pressure: 30.63 in /  1037.1 hPa 30.66 in /  1038.1 hPa 30.57 in /  1035.1 hPa -
Precipitation: 0.00 in /  0 mm      
Historical Graphs
 
 
Tabular Data for February 22, 2018
Time Temperature Dew Point Pressure Wind Wind Speed Wind Gust Humidity Rainfall Rate (Hourly) solar
00:02 33.3 °F /  0.7 °C 28.4 °F /  -2 °C 30.57in /  1035.1hPa WNW 1.0mph /  1.6km/h 2.0mph /  3.2km/h 82% 0.00in /  0mm 0 W/m2
00:08 33.4 °F /  0.8 °C 28.5 °F /  -1.9 °C 30.57in /  1035.1hPa WNW 1.0mph /  1.6km/h 2.0mph /  3.2km/h 82% 0.00in /  0mm 0 W/m2
00:14 33.3 °F /  0.7 °C 28.4 °F /  -2 °C 30.57in /  1035.1hPa Calm   1.0mph /  1.6km/h 82% 0.00in /  0mm 0 W/m2
00:20 33.4 °F /  0.8 °C 28.5 °F /  -1.9 °C 30.57in /  1035.1hPa Calm   3.0mph /  4.8km/h 82% 0.00in /  0mm 0 W/m2
00:26 33.4 °F /  0.8 °C 28.5 °F /  -1.9 °C 30.58in /  1035.4hPa Calm   3.0mph /  4.8km/h 82% 0.00in /  0mm 0 W/m2
00:32 33.4 °F /  0.8 °C 28.5 °F /  -1.9 °C 30.58in /  1035.4hPa WNW 1.0mph /  1.6km/h 1.0mph /  1.6km/h 82% 0.00in /  0mm 0 W/m2
00:38 33.5 °F /  0.8 °C 28.6 °F /  -1.9 °C 30.58in /  1035.4hPa WNW 1.0mph /  1.6km/h 1.0mph /  1.6km/h 82% 0.00in /  0mm 0 W/m2
00:44 33.4 °F /  0.8 °C 28.5 °F /  -1.9 °C 30.57in /  1035.1hPa Calm   2.0mph /  3.2km/h 82% 0.00in /  0mm 0 W/m2
00:50 33.4 °F /  0.8 °C 28.5 °F /  -1.9 °C 30.58in /  1035.4hPa WNW 1.0mph /  1.6km/h 1.0mph /  1.6km/h 82% 0.00in /  0mm 0 W/m2
00:56 33.4 °F /  0.8 °C 28.5 °F /  -1.9 °C 30.58in /  1035.4hPa WNW 1.0mph /  1.6km/h 2.0mph /  3.2km/h 82% 0.00in /  0mm 0 W/m2
01:02 33.4 °F /  0.8 °C 28.5 °F /  -1.9 °C 30.58in /  1035.4hPa WNW 1.0mph /  1.6km/h 1.0mph /  1.6km/h 82% 0.00in /  0mm 0 W/m2
01:08 33.4 °F /  0.8 °C 28.5 °F /  -1.9 °C 30.59in /  1035.8hPa Calm   2.0mph /  3.2km/h 82% 0.00in /  0mm 0 W/m2
01:14 33.4 °F /  0.8 °C 28.5 °F /  -1.9 °C 30.58in /  1035.4hPa Calm   1.0mph /  1.6km/h 82% 0.00in /  0mm 0 W/m2
01:20 33.4 °F /  0.8 °C 28.5 °F /  -1.9 °C 30.59in /  1035.8hPa Calm     82% 0.00in /  0mm 0 W/m2
01:26 33.4 °F /  0.8 °C 28.5 °F /  -1.9 °C 30.59in /  1035.8hPa Calm   1.0mph /  1.6km/h 82% 0.00in /  0mm 0 W/m2
01:32 33.4 °F /  0.8 °C 28.5 °F /  -1.9 °C 30.59in /  1035.8hPa Calm   2.0mph /  3.2km/h 82% 0.00in /  0mm 0 W/m2
01:38 33.3 °F /  0.7 °C 28.4 °F /  -2 °C 30.59in /  1035.8hPa WNW 1.0mph /  1.6km/h 2.0mph /  3.2km/h 82% 0.00in /  0mm 0 W/m2
01:44 33.3 °F /  0.7 °C 28.7 °F /  -1.8 °C 30.59in /  1035.8hPa Calm   2.0mph /  3.2km/h 83% 0.00in /  0mm 0 W/m2
01:50 33.4 °F /  0.8 °C 28.8 °F /  -1.8 °C 30.59in /  1035.8hPa WNW 1.0mph /  1.6km/h 1.0mph /  1.6km/h 83% 0.00in /  0mm 0 W/m2
01:56 33.3 °F /  0.7 °C 28.7 °F /  -1.8 °C 30.59in /  1035.8hPa Calm   1.0mph /  1.6km/h 83% 0.00in /  0mm 0 W/m2
02:02 33.3 °F /  0.7 °C 28.7 °F /  -1.8 °C 30.59in /  1035.8hPa Calm     83% 0.00in /  0mm 0 W/m2
02:08 33.3 °F /  0.7 °C 28.7 °F /  -1.8 °C 30.59in /  1035.8hPa Calm     83% 0.00in /  0mm 0 W/m2
02:14 33.2 °F /  0.7 °C 28.6 °F /  -1.9 °C 30.59in /  1035.8hPa Calm     83% 0.00in /  0mm 0 W/m2
02:20 33.2 °F /  0.7 °C 28.6 °F /  -1.9 °C 30.59in /  1035.8hPa Calm     83% 0.00in /  0mm 0 W/m2
02:26 33.2 °F /  0.7 °C 28.6 °F /  -1.9 °C 30.59in /  1035.8hPa WNW 1.0mph /  1.6km/h 3.0mph /  4.8km/h 83% 0.00in /  0mm 0 W/m2
02:32 33.2 °F /  0.7 °C 28.6 °F /  -1.9 °C 30.59in /  1035.8hPa Calm     83% 0.00in /  0mm 0 W/m2
02:38 33.2 °F /  0.7 °C 28.9 °F /  -1.7 °C 30.59in /  1035.8hPa Calm     84% 0.00in /  0mm 0 W/m2
02:44 33.2 °F /  0.7 °C 28.6 °F /  -1.9 °C 30.59in /  1035.8hPa Calm     83% 0.00in /  0mm 0 W/m2
02:50 33.2 °F /  0.7 °C 28.9 °F /  -1.7 °C 30.59in /  1035.8hPa Calm     84% 0.00in /  0mm 0 W/m2
02:56 33.2 °F /  0.7 °C 28.9 °F /  -1.7 °C 30.59in /  1035.8hPa Calm     84% 0.00in /  0mm 0 W/m2
03:02 33.2 °F /  0.7 °C 28.9 °F /  -1.7 °C 30.60in /  1036.1hPa Calm     84% 0.00in /  0mm 0 W/m2
03:08 33.2 °F /  0.7 °C 28.9 °F /  -1.7 °C 30.60in /  1036.1hPa Calm     84% 0.00in /  0mm 0 W/m2
03:14 33.2 °F /  0.7 °C 28.9 °F /  -1.7 °C 30.59in /  1035.8hPa Calm     84% 0.00in /  0mm 0 W/m2
03:20 33.2 °F /  0.7 °C 28.9 °F /  -1.7 °C 30.59in /  1035.8hPa Calm     84% 0.00in /  0mm 0 W/m2
03:26 33.2 °F /  0.7 °C 28.9 °F /  -1.7 °C 30.59in /  1035.8hPa Calm     84% 0.00in /  0mm 0 W/m2
03:32 33.2 °F /  0.7 °C 29.2 °F /  -1.6 °C 30.59in /  1035.8hPa Calm     85% 0.00in /  0mm 0 W/m2
03:38 33.2 °F /  0.7 °C 28.9 °F /  -1.7 °C 30.59in /  1035.8hPa Calm     84% 0.00in /  0mm 0 W/m2
03:44 33.2 °F /  0.7 °C 29.2 °F /  -1.6 °C 30.59in /  1035.8hPa Calm     85% 0.00in /  0mm 0 W/m2
03:50 33.2 °F /  0.7 °C 29.2 °F /  -1.6 °C 30.59in /  1035.8hPa Calm     85% 0.00in /  0mm 0 W/m2
03:56 33.2 °F /  0.7 °C 29.2 °F /  -1.6 °C 30.59in /  1035.8hPa Calm   1.0mph /  1.6km/h 85% 0.00in /  0mm 0 W/m2
04:02 33.1 °F /  0.6 °C 29.1 °F /  -1.6 °C 30.59in /  1035.8hPa Calm     85% 0.00in /  0mm 0 W/m2
04:08 33.1 °F /  0.6 °C 29.1 °F /  -1.6 °C 30.58in /  1035.4hPa Calm     85% 0.00in /  0mm 0 W/m2
04:14 33.1 °F /  0.6 °C 29.1 °F /  -1.6 °C 30.59in /  1035.8hPa Calm     85% 0.00in /  0mm 0 W/m2
04:20 33.1 °F /  0.6 °C 29.1 °F /  -1.6 °C 30.59in /  1035.8hPa Calm     85% 0.00in /  0mm 0 W/m2
04:26 33.1 °F /  0.6 °C 29.1 °F /  -1.6 °C 30.59in /  1035.8hPa Calm     85% 0.00in /  0mm 0 W/m2
04:32 33.1 °F /  0.6 °C 29.1 °F /  -1.6 °C 30.59in /  1035.8hPa Calm     85% 0.00in /  0mm 0 W/m2
04:38 33.1 °F /  0.6 °C 29.1 °F /  -1.6 °C 30.59in /  1035.8hPa Calm     85% 0.00in /  0mm 0 W/m2
04:44 33.0 °F /  0.6 °C 29.0 °F /  -1.7 °C 30.59in /  1035.8hPa Calm     85% 0.00in /  0mm 0 W/m2
04:50 33.0 °F /  0.6 °C 29.0 °F /  -1.7 °C 30.59in /  1035.8hPa Calm     85% 0.00in /  0mm 0 W/m2
04:56 33.0 °F /  0.6 °C 29.0 °F /  -1.7 °C 30.59in /  1035.8hPa Calm   1.0mph /  1.6km/h 85% 0.00in /  0mm 0 W/m2
05:02 33.0 °F /  0.6 °C 29.0 °F /  -1.7 °C 30.59in /  1035.8hPa Calm     85% 0.00in /  0mm 0 W/m2
05:08 33.1 °F /  0.6 °C 29.1 °F /  -1.6 °C 30.59in /  1035.8hPa Calm     85% 0.00in /  0mm 0 W/m2
05:14 33.0 °F /  0.6 °C 29.0 °F /  -1.7 °C 30.59in /  1035.8hPa Calm   1.0mph /  1.6km/h 85% 0.00in /  0mm 0 W/m2
05:20 33.0 °F /  0.6 °C 29.0 °F /  -1.7 °C 30.60in /  1036.1hPa Calm     85% 0.00in /  0mm 0 W/m2
05:26 33.1 °F /  0.6 °C 29.1 °F /  -1.6 °C 30.60in /  1036.1hPa Calm     85% 0.00in /  0mm 0 W/m2
05:32 33.1 °F /  0.6 °C 29.4 °F /  -1.4 °C 30.61in /  1036.5hPa Calm     86% 0.00in /  0mm 0 W/m2
05:38 33.1 °F /  0.6 °C 29.4 °F /  -1.4 °C 30.60in /  1036.1hPa Calm     86% 0.00in /  0mm 0 W/m2
05:44 33.1 °F /  0.6 °C 29.4 °F /  -1.4 °C 30.60in /  1036.1hPa Calm     86% 0.00in /  0mm 0 W/m2
05:50 33.1 °F /  0.6 °C 29.1 °F /  -1.6 °C 30.60in /  1036.1hPa Calm     85% 0.00in /  0mm 0 W/m2
05:56 33.1 °F /  0.6 °C 29.1 °F /  -1.6 °C 30.59in /  1035.8hPa Calm     85% 0.00in /  0mm 0 W/m2
06:02 33.1 °F /  0.6 °C 29.1 °F /  -1.6 °C 30.59in /  1035.8hPa Calm     85% 0.00in /  0mm 0 W/m2
06:08 33.1 °F /  0.6 °C 29.4 °F /  -1.4 °C 30.59in /  1035.8hPa Calm     86% 0.00in /  0mm 0 W/m2
06:14 33.2 °F /  0.7 °C 29.5 °F /  -1.4 °C 30.59in /  1035.8hPa Calm     86% 0.00in /  0mm 0 W/m2
06:20 33.1 °F /  0.6 °C 29.4 °F /  -1.4 °C 30.59in /  1035.8hPa Calm     86% 0.00in /  0mm 0 W/m2
06:26 33.1 °F /  0.6 °C 29.4 °F /  -1.4 °C 30.59in /  1035.8hPa Calm     86% 0.00in /  0mm 0 W/m2
06:32 33.1 °F /  0.6 °C 29.4 °F /  -1.4 °C 30.59in /  1035.8hPa Calm     86% 0.00in /  0mm 0 W/m2
06:38 33.1 °F /  0.6 °C 29.4 °F /  -1.4 °C 30.59in /  1035.8hPa Calm     86% 0.00in /  0mm 0 W/m2
06:44 33.1 °F /  0.6 °C 29.4 °F /  -1.4 °C 30.59in /  1035.8hPa Calm     86% 0.00in /  0mm 0 W/m2
06:50 33.2 °F /  0.7 °C 29.5 °F /  -1.4 °C 30.59in /  1035.8hPa Calm     86% 0.00in /  0mm 0 W/m2
06:56 33.2 °F /  0.7 °C 29.5 °F /  -1.4 °C 30.59in /  1035.8hPa Calm     86% 0.00in /  0mm 0 W/m2
07:02 33.1 °F /  0.6 °C 29.4 °F /  -1.4 °C 30.60in /  1036.1hPa Calm     86% 0.00in /  0mm 0 W/m2
07:08 33.0 °F /  0.6 °C 29.3 °F /  -1.5 °C 30.59in /  1035.8hPa Calm     86% 0.00in /  0mm 9 W/m2
07:14 33.0 °F /  0.6 °C 29.3 °F /  -1.5 °C 30.61in /  1036.5hPa Calm     86% 0.00in /  0mm 5 W/m2
07:20 33.0 °F /  0.6 °C 29.6 °F /  -1.3 °C 30.61in /  1036.5hPa Calm     87% 0.00in /  0mm 14 W/m2
07:26 33.1 °F /  0.6 °C 29.4 °F /  -1.4 °C 30.61in /  1036.5hPa Calm     86% 0.00in /  0mm 18 W/m2
07:32 33.1 °F /  0.6 °C 29.7 °F /  -1.3 °C 30.61in /  1036.5hPa Calm   1.0mph /  1.6km/h 87% 0.00in /  0mm 7 W/m2
07:38 33.0 °F /  0.6 °C 29.6 °F /  -1.3 °C 30.61in /  1036.5hPa Calm   1.0mph /  1.6km/h 87% 0.00in /  0mm 11 W/m2
07:44 33.0 °F /  0.6 °C 29.6 °F /  -1.3 °C 30.62in /  1036.8hPa Calm     87% 0.00in /  0mm 14 W/m2
07:50 33.0 °F /  0.6 °C 29.6 °F /  -1.3 °C 30.62in /  1036.8hPa Calm     87% 0.00in /  0mm 18 W/m2
07:56 33.1 °F /  0.6 °C 29.7 °F /  -1.3 °C 30.62in /  1036.8hPa Calm     87% 0.00in /  0mm 25 W/m2
08:02 33.1 °F /  0.6 °C 29.7 °F /  -1.3 °C 30.61in /  1036.5hPa Calm     87% 0.00in /  0mm 16 W/m2
08:08 33.1 °F /  0.6 °C 29.7 °F /  -1.3 °C 30.61in /  1036.5hPa Calm     87% 0.00in /  0mm 16 W/m2
08:14 33.0 °F /  0.6 °C 29.6 °F /  -1.3 °C 30.62in /  1036.8hPa Calm     87% 0.00in /  0mm 18 W/m2
08:20 33.1 °F /  0.6 °C 29.7 °F /  -1.3 °C 30.62in /  1036.8hPa Calm     87% 0.00in /  0mm 19 W/m2
08:26 33.2 °F /  0.7 °C 29.8 °F /  -1.2 °C 30.62in /  1036.8hPa Calm     87% 0.00in /  0mm 21 W/m2
08:32 33.2 °F /  0.7 °C 29.8 °F /  -1.2 °C 30.62in /  1036.8hPa Calm   3.0mph /  4.8km/h 87% 0.00in /  0mm 26 W/m2
08:38 33.3 °F /  0.7 °C 29.8 °F /  -1.2 °C 30.62in /  1036.8hPa WNW 1.0mph /  1.6km/h 3.0mph /  4.8km/h 87% 0.00in /  0mm 26 W/m2
08:44 33.3 °F /  0.7 °C 29.8 °F /  -1.2 °C 30.62in /  1036.8hPa Calm     87% 0.00in /  0mm 30 W/m2
08:50 33.4 °F /  0.8 °C 29.9 °F /  -1.2 °C 30.62in /  1036.8hPa Calm   1.0mph /  1.6km/h 87% 0.00in /  0mm 30 W/m2
08:56 33.4 °F /  0.8 °C 29.9 °F /  -1.2 °C 30.63in /  1037.1hPa Calm   1.0mph /  1.6km/h 87% 0.00in /  0mm 30 W/m2
09:02 33.5 °F /  0.8 °C 30.0 °F /  -1.1 °C 30.64in /  1037.5hPa Calm     87% 0.00in /  0mm 33 W/m2
09:08 33.6 °F /  0.9 °C 30.1 °F /  -1.1 °C 30.65in /  1037.8hPa Calm   1.0mph /  1.6km/h 87% 0.00in /  0mm 39 W/m2
09:14 33.6 °F /  0.9 °C 30.1 °F /  -1.1 °C 30.65in /  1037.8hPa WNW 1.0mph /  1.6km/h 1.0mph /  1.6km/h 87% 0.00in /  0mm 35 W/m2
09:20 33.7 °F /  0.9 °C 30.2 °F /  -1 °C 30.65in /  1037.8hPa WNW 1.0mph /  1.6km/h 3.0mph /  4.8km/h 87% 0.00in /  0mm 46 W/m2
09:26 33.6 °F /  0.9 °C 30.1 °F /  -1.1 °C 30.66in /  1038.1hPa WNW 1.0mph /  1.6km/h 3.0mph /  4.8km/h 87% 0.00in /  0mm 47 W/m2
09:32 33.7 °F /  0.9 °C 30.2 °F /  -1 °C 30.66in /  1038.1hPa Calm   1.0mph /  1.6km/h 87% 0.00in /  0mm 39 W/m2
09:38 33.7 °F /  0.9 °C 30.2 °F /  -1 °C 30.66in /  1038.1hPa Calm   1.0mph /  1.6km/h 87% 0.00in /  0mm 40 W/m2
09:44 33.8 °F /  1 °C 30.3 °F /  -0.9 °C 30.65in /  1037.8hPa Calm     87% 0.00in /  0mm 54 W/m2
09:50 33.9 °F /  1.1 °C 30.4 °F /  -0.9 °C 30.64in /  1037.5hPa Calm     87% 0.00in /  0mm 62 W/m2
09:56 34.0 °F /  1.1 °C 30.5 °F /  -0.8 °C 30.64in /  1037.5hPa WNW 1.0mph /  1.6km/h 2.0mph /  3.2km/h 87% 0.00in /  0mm 70 W/m2
10:02 34.3 °F /  1.3 °C 30.5 °F /  -0.8 °C 30.63in /  1037.1hPa South 1.0mph /  1.6km/h 3.0mph /  4.8km/h 86% 0.00in /  0mm 69 W/m2
10:08 34.3 °F /  1.3 °C 30.5 °F /  -0.8 °C 30.63in /  1037.1hPa SSE 2.0mph /  3.2km/h 3.0mph /  4.8km/h 86% 0.00in /  0mm 70 W/m2
Country Meadow, Clay, NY, USA
Compliments of Weather Underground - 2 mb